| time (UTC) | temp F | wind direction | speed knots | gust knots | rain 1hr in | rain 24hr in | rain mn in | humidity % | barometer mb |
| 20260509185003 | 63 | 360 | 3.5 | 8.7 | 0.00 | 0.00 | 0.00 | 63 | 1008.4 |
| 20260509184003 | 63 | 360 | 3.5 | 14.8 | 0.00 | 0.00 | 0.00 | 63 | 1008.5 |
| 20260509183003 | 62 | 360 | 3.5 | 14.8 | 0.00 | 0.00 | 0.00 | 65 | 1008.4 |
| 20260509182213 | 62 | 360 | 3.5 | 9.6 | 0.00 | 0.00 | 0.00 | 66 | 1008.5 |
| 20260509181004 | 61 | 360 | 0.9 | 5.2 | 0.00 | 0.00 | 0.00 | 71 | 1008.7 |
| 20260509180003 | 60 | 360 | 2.6 | 6.1 | 0.00 | 0.00 | 0.00 | 68 | 1008.8 |
| 20260509175006 | 60 | 360 | 2.6 | 8.7 | 0.00 | 0.00 | 0.00 | 68 | 1008.7 |
| 20260509174004 | 60 | 360 | 2.6 | 7.8 | 0.00 | 0.00 | 0.00 | 70 | 1008.6 |
| 20260509173003 | 59 | 360 | 1.7 | 5.2 | 0.00 | 0.00 | 0.00 | 71 | 1008.7 |
| 20260509172004 | 58 | 360 | 1.7 | 5.2 | 0.00 | 0.00 | 0.00 | 74 | 1008.8 |
| 20260509171004 | 57 | 360 | 1.7 | 7.0 | 0.00 | 0.00 | 0.00 | 74 | 1008.9 |
| 20260509170003 | 57 | 360 | 0.9 | 7.8 | 0.00 | 0.00 | 0.00 | 73 | 1009.0 |
| 20260509105004 | 38 | 0 | 0.0 | 0.0 | 0.00 | 0.04 | 0.00 | 84 | 1009.6 |
| 20260509104214 | 38 | 0 | 0.0 | 0.0 | 0.00 | 0.04 | 0.00 | 84 | 1009.5 |
| 20260509103214 | 38 | 0 | 0.0 | 0.0 | 0.00 | 0.04 | 0.00 | 84 | 1009.7 |
| 20260509102006 | 38 | 0 | 0.0 | 0.0 | 0.00 | 0.04 | 0.00 | 84 | 1009.6 |
| 20260509101005 | 38 | 0 | 0.0 | 0.0 | 0.00 | 0.04 | 0.00 | 84 | 1009.5 |
| 20260509100005 | 38 | 0 | 0.0 | 0.0 | 0.00 | 0.04 | 0.00 | 84 | 1009.3 |
| 20260509095005 | 38 | 0 | 0.0 | 0.0 | 0.00 | 0.04 | 0.00 | 84 | 1009.2 |
| 20260509094214 | 38 | 0 | 0.0 | 0.0 | 0.00 | 0.04 | 0.00 | 84 | 1009.2 |
| 20260509093004 | 38 | 0 | 0.0 | 0.0 | 0.00 | 0.04 | 0.00 | 84 | 1009.1 |
| 20260509092004 | 38 | 0 | 0.0 | 0.0 | 0.00 | 0.04 | 0.00 | 84 | 1009.3 |
| 20260509091004 | 38 | 0 | 0.0 | 0.0 | 0.00 | 0.04 | 0.00 | 84 | 1009.4 |
| 20260509090004 | 38 | 0 | 0.0 | 0.0 | 0.00 | 0.04 | 0.00 | 84 | 1009.5 |
| 20260509085004 | 38 | 0 | 0.0 | 0.0 | 0.00 | 0.04 | 0.00 | 84 | 1009.7 |
| 20260509084004 | 38 | 0 | 0.0 | 0.0 | 0.00 | 0.04 | 0.00 | 84 | 1009.7 |
| 20260509083004 | 38 | 0 | 0.0 | 0.9 | 0.00 | 0.04 | 0.00 | 84 | 1010.0 |
| 20260509082004 | 38 | 0 | 0.0 | 0.0 | 0.00 | 0.04 | 0.00 | 84 | 1009.9 |
| 20260509081005 | 38 | 0 | 0.0 | 0.0 | 0.00 | 0.08 | 0.00 | 84 | 1009.9 |
| 20260509080213 | 38 | 0 | 0.0 | 0.9 | 0.00 | 0.08 | 0.00 | 84 | 1010.0 |
| 20260509075004 | 38 | 0 | 0.0 | 0.0 | 0.00 | 0.08 | 0.00 | 84 | 1010.2 |
| 20260509074004 | 38 | 360 | 0.0 | 1.7 | 0.00 | 0.08 | 0.00 | 84 | 1010.2 |
| 20260509073003 | 38 | 360 | 0.0 | 1.7 | 0.00 | 0.08 | 0.00 | 84 | 1010.3 |
| 20260509072003 | 38 | 360 | 0.0 | 1.7 | 0.00 | 0.08 | 0.00 | 84 | 1010.1 |
| 20260509071003 | 38 | 0 | 0.0 | 0.0 | 0.00 | 0.08 | 0.00 | 84 | 1010.2 |
| 20260509070005 | 38 | 0 | 0.0 | 0.0 | 0.00 | 0.08 | 0.00 | 84 | 1010.1 |
| 20260509065003 | 38 | 0 | 0.0 | 0.0 | 0.00 | 0.08 | 0.00 | 84 | 1010.2 |
| 20260509064003 | 38 | 0 | 0.0 | 0.0 | 0.00 | 0.08 | 0.00 | 84 | 1010.4 |
| 20260509063003 | 38 | 0 | 0.0 | 0.0 | 0.00 | 0.08 | 0.00 | 84 | 1010.5 |
| 20260509062004 | 38 | 0 | 0.0 | 0.9 | 0.00 | 0.08 | 0.00 | 84 | 1010.5 |
| 20260509061003 | 38 | 360 | 0.9 | 3.5 | 0.00 | 0.09 | 0.00 | 84 | 1010.7 |
| 20260509060003 | 38 | 360 | 0.0 | 1.7 | 0.00 | 0.09 | 0.00 | 84 | 1010.8 |
| 20260509055003 | 38 | 360 | 0.9 | 3.5 | 0.00 | 0.09 | 0.00 | 84 | 1010.8 |
| 20260509054004 | 38 | 360 | 1.7 | 4.3 | 0.00 | 0.09 | 0.00 | 84 | 1010.8 |
| 20260509053003 | 38 | 360 | 1.7 | 4.3 | 0.00 | 0.09 | 0.00 | 84 | 1011.2 |
| 20260509052214 | 38 | 360 | 1.7 | 4.3 | 0.00 | 0.09 | 0.00 | 84 | 1011.1 |
| 20260509051003 | 38 | 360 | 1.7 | 3.5 | 0.00 | 0.09 | 0.00 | 84 | 1011.1 |
| 20260509050214 | 38 | 360 | 0.9 | 3.5 | 0.00 | 0.09 | 0.00 | 84 | 1011.3 |
| 20260509045003 | 38 | 360 | 0.9 | 2.6 | 0.00 | 0.09 | 0.00 | 84 | 1011.3 |
| 20260509044003 | 38 | 360 | 0.9 | 3.5 | 0.00 | 0.09 | 0.00 | 84 | 1011.5 |
| 20260509043214 | 38 | 360 | 0.9 | 4.3 | 0.00 | 0.09 | 0.00 | 84 | 1011.5 |
| 20260509042003 | 38 | 360 | 1.7 | 4.3 | 0.00 | 0.09 | 0.00 | 84 | 1011.5 |
| 20260509041003 | 38 | 360 | 2.6 | 3.5 | 0.00 | 0.09 | 0.00 | 84 | 1011.5 |
| 20260509040009 | 38 | 360 | 1.7 | 4.3 | 0.00 | 0.09 | 0.00 | 84 | 1011.4 |
| 20260509035005 | 38 | 360 | 2.6 | 5.2 | 0.00 | 0.09 | 0.09 | 84 | 1011.5 |
| 20260509034215 | 38 | 360 | 2.6 | 5.2 | 0.00 | 0.09 | 0.09 | 84 | 1011.5 |
| 20260509033004 | 38 | 360 | 2.6 | 5.2 | 0.00 | 0.09 | 0.09 | 84 | 1011.5 |
| 20260509032215 | 38 | 360 | 2.6 | 5.2 | 0.00 | 0.09 | 0.09 | 84 | 1011.5 |
| 20260509031213 | 38 | 360 | 1.7 | 4.3 | 0.00 | 0.09 | 0.09 | 84 | 1011.3 |
| 20260509030005 | 38 | 360 | 1.7 | 4.3 | 0.00 | 0.09 | 0.09 | 84 | 1011.5 |
| 20260509025004 | 38 | 360 | 2.6 | 5.2 | 0.00 | 0.09 | 0.09 | 84 | 1011.6 |
| 20260509024004 | 38 | 360 | 1.7 | 3.5 | 0.00 | 0.09 | 0.09 | 84 | 1011.6 |
| 20260509023217 | 38 | 360 | 1.7 | 3.5 | 0.00 | 0.09 | 0.09 | 84 | 1011.6 |
| 20260509022006 | 38 | 360 | 0.9 | 2.6 | 0.00 | 0.09 | 0.09 | 84 | 1011.8 |
| 20260509021215 | 38 | 360 | 0.9 | 2.6 | 0.00 | 0.09 | 0.09 | 84 | 1011.8 |
| 20260509020005 | 38 | 360 | 0.0 | 1.7 | 0.00 | 0.09 | 0.09 | 84 | 1011.8 |
| 20260509015004 | 38 | 0 | 0.0 | 0.0 | 0.00 | 0.09 | 0.09 | 84 | 1011.7 |
| 20260509014214 | 38 | 0 | 0.0 | 0.0 | 0.00 | 0.09 | 0.09 | 84 | 1011.6 |
| 20260509013004 | 38 | 0 | 0.0 | 0.0 | 0.00 | 0.09 | 0.09 | 84 | 1011.5 |
| 20260509012006 | 38 | 0 | 0.0 | 0.9 | 0.00 | 0.09 | 0.09 | 84 | 1011.5 |
| 20260509011004 | 38 | 360 | 0.0 | 1.7 | 0.00 | 0.09 | 0.09 | 84 | 1011.3 |
| 20260509010004 | 38 | 360 | 0.0 | 1.7 | 0.00 | 0.09 | 0.09 | 84 | 1011.1 |
| 20260509005003 | 38 | 360 | 0.0 | 1.7 | 0.00 | 0.09 | 0.09 | 84 | 1011.0 |
| 20260509004003 | 38 | 360 | 0.0 | 2.6 | 0.00 | 0.09 | 0.09 | 84 | 1010.9 |
| 20260509003003 | 38 | 360 | 0.9 | 1.7 | 0.00 | 0.09 | 0.09 | 84 | 1010.9 |
| 20260509002003 | 38 | 360 | 0.9 | 1.7 | 0.00 | 0.09 | 0.09 | 84 | 1010.8 |
| 20260509001003 | 38 | 360 | 0.9 | 1.7 | 0.00 | 0.09 | 0.09 | 84 | 1010.6 |
| 20260509000005 | 38 | 360 | 0.9 | 1.7 | 0.00 | 0.09 | 0.09 | 84 | 1010.7 |
| 20260508235003 | 38 | 360 | 0.0 | 1.7 | 0.00 | 0.09 | 0.09 | 84 | 1010.6 |
| 20260508234004 | 38 | 360 | 0.9 | 3.5 | 0.00 | 0.09 | 0.09 | 84 | 1010.4 |
| 20260508233003 | 38 | 360 | 0.9 | 2.6 | 0.00 | 0.09 | 0.09 | 84 | 1010.5 |
| 20260508232003 | 38 | 360 | 0.0 | 2.6 | 0.00 | 0.09 | 0.09 | 84 | 1010.6 |
| 20260508231003 | 38 | 360 | 0.9 | 2.6 | 0.00 | 0.09 | 0.09 | 84 | 1010.5 |
| 20260508230003 | 38 | 360 | 0.0 | 2.6 | 0.00 | 0.09 | 0.09 | 84 | 1010.5 |
| 20260508225213 | 38 | 360 | 1.7 | 5.2 | 0.00 | 0.09 | 0.09 | 84 | 1010.4 |
| 20260508224003 | 38 | 360 | 0.9 | 2.6 | 0.00 | 0.09 | 0.09 | 84 | 1010.6 |
| 20260508223003 | 38 | 360 | 2.6 | 8.7 | 0.00 | 0.09 | 0.09 | 84 | 1010.6 |
| 20260508222003 | 38 | 360 | 1.7 | 7.8 | 0.00 | 0.09 | 0.09 | 84 | 1010.7 |
| 20260508221003 | 38 | 360 | 1.7 | 5.2 | 0.00 | 0.09 | 0.09 | 84 | 1010.7 |
| 20260508220003 | 38 | 360 | 1.7 | 6.1 | 0.00 | 0.09 | 0.09 | 84 | 1010.9 |
| 20260508215004 | 38 | 360 | 1.7 | 7.0 | 0.00 | 0.09 | 0.09 | 84 | 1011.0 |
| 20260508214005 | 38 | 360 | 0.9 | 3.5 | 0.00 | 0.09 | 0.09 | 84 | 1010.9 |
| 20260508213004 | 38 | 360 | 0.9 | 6.1 | 0.00 | 0.09 | 0.09 | 84 | 1011.0 |
| 20260508212005 | 38 | 360 | 1.7 | 6.1 | 0.00 | 0.09 | 0.09 | 84 | 1011.1 |
| 20260508211215 | 38 | 360 | 2.6 | 7.0 | 0.00 | 0.09 | 0.09 | 84 | 1010.9 |
| 20260508210005 | 38 | 360 | 2.6 | 7.8 | 0.00 | 0.09 | 0.09 | 84 | 1011.0 |
| 20260508205004 | 38 | 360 | 3.5 | 9.6 | 0.00 | 0.09 | 0.09 | 84 | 1011.3 |
| 20260508204004 | 38 | 360 | 3.5 | 8.7 | 0.00 | 0.09 | 0.09 | 84 | 1011.1 |
| 20260508203005 | 38 | 360 | 2.6 | 11.3 | 0.00 | 0.09 | 0.09 | 84 | 1011.1 |
| 20260508202214 | 38 | 360 | 3.5 | 11.3 | 0.00 | 0.09 | 0.09 | 84 | 1011.1 |
| 20260508201004 | 38 | 360 | 6.1 | 13.0 | 0.00 | 0.09 | 0.09 | 84 | 1011.3 |
| 20260508200004 | 38 | 360 | 3.5 | 8.7 | 0.00 | 0.09 | 0.09 | 84 | 1011.4 |
| 20260508195004 | 38 | 360 | 4.3 | 9.6 | 0.00 | 0.09 | 0.09 | 84 | 1011.5 |
| 20260508194005 | 38 | 360 | 3.5 | 9.6 | 0.00 | 0.09 | 0.09 | 84 | 1011.7 |
| 20260508193005 | 38 | 360 | 3.5 | 11.3 | 0.00 | 0.09 | 0.09 | 84 | 1011.6 |
| 20260508192006 | 38 | 360 | 1.7 | 7.8 | 0.00 | 0.09 | 0.09 | 84 | 1011.6 |
| 20260508191003 | 38 | 360 | 1.7 | 9.6 | 0.00 | 0.09 | 0.09 | 84 | 1011.8 |
| 20260508190004 | 38 | 360 | 2.6 | 7.8 | 0.00 | 0.09 | 0.09 | 84 | 1011.7 |